Regional Weather Roundup
Issued by NWS Charleston, SC

Home | Current Version | Previous Version | Text Only | Print | Product List | Glossary On
Versions: 1 2 3 4 5 6 7 8 9 10 11 12 13 14 15 16 17 18 19 20 21 22 23 24 25 26 27 28 29 30 31 32 33 34 35 36 37 38 39 40 41 42 43 44 45 46 47 48 49 50
000
ASUS42 KCHS 231427
RWRCHS

REGIONAL WEATHER ROUNDUP
NATIONAL WEATHER SERVICE CHARLESTON SC
1000 AM EDT THU MAR 23 2017

NOTE: "FAIR" INDICATES FEW OR NO CLOUDS BELOW 12,000 FEET WITH NO
SIGNIFICANT WEATHER AND/OR OBSTRUCTIONS TO VISIBILITY.

NOT ALL STATIONS ARE QUALITY CONTROLLED. USE DATA WITH CAUTION...
ESPECIALLY DEWPOINT OBSERVATIONS.

SCZ027-030-031-034>040-042>050-231500-
...SOUTHEAST SOUTH CAROLINA...

CITY           SKY/WX    TMP DP  RH WIND       PRES   REMARKS
N CHARLESTON   SUNNY     55  38  52 NE12G23   30.47R
WATERFRONT PRK   N/A     54  44  69 NE22      30.43R
JOHNS ISLAND   FAIR      59  41  51 NE16G31   30.47R
PINOPOLIS        N/A     48  37  66 E14       30.41R
MONCKS CORNER  FAIR      52  27  37 E10       30.51R
SUMMERVILLE    FAIR      52  36  54 NE10      30.51R
BEAUFORT MCAS  MOSUNNY   58  42  55 NE13G22   30.45R
BEAUFORT ARPT  FAIR      57  43  58 NE17      30.45R
HILTON HEAD IS SUNNY     59  46  63 NE14G23   30.42R
WALTERBORO     MOSUNNY   54  36  50 NE13      30.50R
ALLENDALE      PTSUNNY   54  36  50 NE9G15    30.47R

...SOUTHERN MIDLANDS AND PEE DEE...

CITY           SKY/WX    TMP DP  RH WIND       PRES   REMARKS
GEORGETOWN     FAIR      52  37  58 NE13      30.53R
KINGSTREE      FAIR      50  19  29 NE9G20    30.54R
ORANGEBURG     CLOUDY    49  26  41 NE13      30.52R
BARNWELL       FAIR      54  34  47 NE10G21   30.50R
AIKEN          FAIR      48  27  43 NE16      30.54R
MANNING        FAIR      50  27  40 NE10      30.53R
COLUMBIA       MOSUNNY   50  23  34 E14G22    30.53R
SUMTER         SUNNY     48  22  36 NE14G21   30.52R
FLORENCE       SUNNY     46  25  43 E15       30.56R
MYRTLE BEACH   SUNNY     50  32  50 NE17      30.54R
N MYRTLE BEACH SUNNY     49  31  49 NE15G24   30.53R

$$

GAZ063-065-086>088-099>101-113>116-118-119-134>141-150-231500-
...SOUTHEAST GEORGIA...

CITY           SKY/WX    TMP DP  RH WIND       PRES   REMARKS
SAVANNAH ARPT  CLOUDY    58  42  55 NE13      30.43R
HUNTER AAF     PTSUNNY   60  46  60 NE8       30.40R
FORT STEWART   CLOUDY    60  45  58 NE14      30.39R
STATESBORO     CLOUDY    56  42  59 E6G17     30.46R
SYLVANIA       CLOUDY   N/A N/A N/A E10G18    30.46R
CLAXTON        CLOUDY    55  55 100 NE13      30.44R

...CSRA...CENTRAL AND FAR SOUTHEAST GEORGIA...

CITY           SKY/WX    TMP DP  RH WIND       PRES   REMARKS
THOMSON        CLOUDY    50  27  40 MISG      30.55R
AUGUSTA-BUSH   CLOUDY    53  29  39 E13       30.49R
AUGUSTA-DANIEL PTSUNNY   51  22  31 E13G22    30.49R
SWAINSBORO     CLOUDY    54  37  54 NE9       30.45R
VIDALIA        CLOUDY    57  43  58 NE16      30.43R
EASTMAN        CLOUDY    61  37  40 E10G21    30.43R
HAZLEHURST     CLOUDY    60  49  68 E7G16     30.39R
ALMA           CLOUDY    59  50  72 E10G20    30.37R
WAYCROSS       CLOUDY    64  56  73 E14G24    30.37R
JESUP          CLOUDY    61  48  63 E15G25    30.40R
BAXLEY         CLOUDY    61  52  72 NE12      30.40R
BRUNSWICK      CLOUDY    63  55  77 NE16      30.39R
SAINT SIMONS   CLOUDY    63  53  70 NE17G23   30.36R

$$

SCZ027-028-034-036>038-045-046-048>050-GAZ119-141-231500-
...LAKE AND SUPPLEMENTAL COASTAL OBSERVATIONS...

STATION/POSITION TIME  TEMP    WIND        PRES    WAVE   SWELL
                       AIR SEA DIR/SP/G            HT/PER HT/PER/DIR
                 (UTC) (F)     (DEG/KT/KT) (MB)    (FT/S) (FT/S/D)
WINYAH BAY       1345   50      50/ 16     1033.0R
LAKE MURRAY      1350   47      70/ 11/ 16 1033.2R
ACE BASIN NERRS  1330   55      30/  7     1030.0R
FORT PULASKI     1400   58 61   60/ 19/ 25 1030.4
SAPELO ISLAND    1400   62      40/ 13     1029.0

$$

ANZ835-935-AMZ111-154-330-350-352-354-370-450-454-472-231500-
...C-MAN AND BUOY OBSERVATIONS...

STATION/POSITION TIME  TEMP    WIND        PRES    WAVE   SWELL
                       AIR SEA DIR/SP/G            HT/PER HT/PER/DIR
                 (UTC) (F)     (DEG/KT/KT) (MB)    (FT/S) (FT/S/D)
BUOY 41004       1350   60 68   50/ 21/ 27 1029.7R   8/ 8   3/ 70/ 8
BUOY 41008       1350   62 62   60/ 21/ 25 1027.3R   7/ 8
FOLLY BEACH CMAN 1400   56      50/ 24/ 27 1031.7R
CAPERS NEARSHORE 1408   55      70/ 21/ 29 1031.4R
FRIPP NEARSHORE  1408   58 60   60/ 23/ 31 1030.9R


STATION/POSITION TIME  TEMP    WIND        PRES    WAVE   SWELL
                       AIR SEA DIR/SP/G            HT/PER HT/PER/DIR
                 (UTC) (F)     (DEG/KT/KT) (MB)    (FT/S) (FT/S/D)
5E ST. MARYS GA  1400      63                N/A     6/ 6   2/ 90/11
FRYING PAN BUOY  1410   54 64   40/ 19/ 25 1033.0
BUOY 41025       1350   45 72   30/ 19/ 27 1034.9R   9/ 9
CAPE LOOKOUT NC  1400   44      30/ 21/ 25 1035.1R
BUOY 41002       1350   61 71   30/ 21/ 25 1028.3R   8/10   7/ 40/10
BUOY 41010       NOT AVBL
ST AUGUSTINE FL  1400   67 65   80/ 16/ 18 1026.8R


$$



USA.gov is the U.S. government's official web portal to all federal, state and local government web resources and services.